Location: *
(35.2348°S, 91.3916°E)
Time: 23:41:02
(UTC+00:00)

Abrixas rocket - Pass Details

Date: 23 October 2019
Orbit: 359 x 368 km, 48.4° (Epoch: 15 November)

Event Time Altitude Azimuth Distance (km) Brightness Sun altitude
Exits shadow 21:04:58 39° 111° (ESE) 570 3.4 -22.5°
Drops below altitude 10° 21:07:02 10° 123° (ESE) 1,362 6.0 -22.1°
Sets 21:09:06 0° 125° (SE) 2,215 7.5 -21.8°
